User: anonymous   Login
Location: Clayton (historical)
(34.0300°N, 118.0259°W)
Time: 07:02:24
(UTC+00:00)
Language:

Envisat - Orbit

View from above orbital plane
View from above orbital plane
View from above satellite
View from above satellite

Ground track
Ground track

The orbit data is extracted from the following two-line orbital elements,

1 27386U 02009A   21063.94440795  .00000032  00000-0  24131-4 0  9991
2 27386  98.1454  63.3590 0001288  92.8970   4.2244 14.38014994995988
Epoch (UTC): 04 March 2021 22:39:56
Eccentricity: 0.0001288
inclination: 98.1454°
perigee height: 764 km
apogee height: 766 km
right ascension of ascending node: 63.3590°
argument of perigee: 92.8970°
revolutions per day: 14.38014994
mean anomaly at epoch: 4.2244°
orbit number at epoch: 99598

The dashed part of the orbit path shows where the satellite is in the earth's shadow,  

DLR